Location: Home
(42.5358°N, 72.7383°W)
Time: 22:05:21
(UTC-05:00)

Vanguard 2 - Pass Details

Date: 01 December 2021
Orbit: 553 x 2936 km, 32.9° (Epoch: 20 January)

Event Time Altitude Azimuth Distance (km) Brightness Sun altitude
Rises 20:38:00 0° 264° (W) 5,070 12.4 -47.0°
Reaches altitude 10° 20:43:04 10° 244° (WSW) 4,537 11.8 -47.9°
Maximum altitude 20:49:41 16° 213° (SSW) 4,573 11.5 -49.1°
Enters shadow 20:57:08 10° 184° (S) 5,416 11.7 -50.4°
Drops below altitude 10° 20:57:29 10° 183° (S) 5,467 - -50.4°
Sets 21:04:57 0° 165° (SSE) 6,720 - -51.7°
